NM4SH Weather Reports


time (UTC)temp
C
wind
direction
speed
KPH
gust
KPH
rain 1hr
cm
rain 24hr
cm
rain mn
cm
humidity
%
barometer
mb
20260507150323 12 108 4.8 12.9 0.00 0.05 0.05 86 1007.4
20260507144857 12 51 4.8 14.5 0.00 0.05 0.05 86 1007.3
20260507143332 12 93 6.4 11.3 0.00 0.05 0.05 86 1007.1
20260507141829 13 72 3.2 16.1 0.00 0.05 0.05 85 1007.4
20260507140327 13 72 6.4 16.1 0.00 0.05 0.05 86 1006.9
20260507134840 13 30 3.2 16.1 0.00 0.05 0.05 88 1006.9
20260507133336 13 74 8.0 12.9 0.00 0.05 0.05 88 1007.2
20260507131829 13 89 3.2 14.5 0.00 0.05 0.05 89 1007.1
20260507130346 13 92 1.6 9.7 0.00 0.05 0.05 90 1006.4
20260507124837 13 69 6.4 11.3 0.00 0.05 0.05 91 1006.9
20260507123333 14 49 6.4 17.7 0.00 0.05 0.05 92 1006.4
20260507121829 14 65 3.2 4.8 0.00 0.05 0.05 92 1007.0
20260507120323 14 360 3.2 8.0 0.00 0.05 0.05 91 1006.8
20260507114822 14 48 3.2 6.4 0.00 0.05 0.05 91 1006.9
20260507113336 14 86 1.6 9.7 0.00 0.05 0.05 91 1006.6
20260507111853 15 42 3.2 8.0 0.00 0.05 0.05 91 1006.4
20260507110322 15 107 1.6 16.1 0.00 0.05 0.05 91 1006.0
20260507104839 16 76 6.4 11.3 0.00 0.05 0.05 90 1005.9
20260507103337 18 27 1.6 3.2 0.00 0.05 0.05 92 1005.4
20260507101827 18 353 0.0 3.2 0.00 0.05 0.05 92 1005.2
20260507100325 18 309 0.0 3.2 0.00 0.05 0.05 91 1004.9
20260507094839 18 341 0.0 4.8 0.00 0.05 0.05 91 1005.1
20260507093336 18 346 1.6 6.4 0.00 0.05 0.05 91 1004.9
20260507091830 18 157 0.0 3.2 0.00 0.05 0.05 91 1004.3
20260507090343 18 338 0.0 4.8 0.00 0.05 0.05 91 1004.2
20260507084843 18 77 0.0 3.2 0.00 0.05 0.05 91 1004.2
20260507083335 19 224 0.0 4.8 0.00 0.05 0.05 91 1004.7
20260507081831 19 184 1.6 4.8 0.00 0.05 0.05 91 1004.8
20260507080327 19 286 0.0 6.4 0.00 0.05 0.05 91 1004.8
20260507074824 19 219 0.0 6.4 0.00 0.05 0.05 91 1004.8
20260507073337 19 307 0.0 6.4 0.00 0.05 0.05 91 1004.8
20260507071835 19 205 0.0 0.0 0.00 0.05 0.05 90 1004.9
20260507070348 19 201 0.0 0.0 0.00 0.05 0.05 90 1005.0
20260507064841 19 243 0.0 0.0 0.03 0.05 0.05 90 1004.8
20260507063358 19 231 0.0 0.0 0.03 0.05 0.05 89 1004.7
20260507061830 19 233 0.0 0.0 0.03 0.05 0.05 89 1004.8
20260507060327 19 286 0.0 0.0 0.05 0.05 0.05 88 1005.7
20260507054842 20 152 0.0 0.0 0.03 0.03 0.03 87 1005.8
20260507053334 20 165 0.0 3.2 0.03 0.03 0.03 87 1006.0
20260507051852 20 44 0.0 0.0 0.03 0.03 0.03 86 1006.3
20260507050325 20 214 0.0 0.0 0.00 0.00 0.00 84 1006.2
20260507044845 21 214 0.0 0.0 0.00 0.00 0.00 82 1005.8
20260507043338 21 70 0.0 0.0 0.00 0.00 0.00 81 1005.8
20260507041834 21 33 0.0 0.0 0.00 0.00 0.00 80 1005.8
20260507040349 21 13 0.0 1.6 0.00 0.00 0.00 80 1005.8
20260507034840 21 25 0.0 1.6 0.00 0.00 0.00 80 1005.8
20260507033337 21 135 0.0 1.6 0.00 0.00 0.00 79 1005.7
20260507031829 21 136 0.0 3.2 0.00 0.00 0.00 78 1005.8
20260507030326 21 247 0.0 3.2 0.00 0.00 0.00 78 1005.8
20260507024820 21 198 0.0 0.0 0.00 0.00 0.00 77 1005.9
20260507023321 21 359 0.0 0.0 0.00 0.00 0.00 76 1006.1
20260507021838 22 158 0.0 0.0 0.00 0.00 0.00 76 1006.1
20260507020333 22 143 0.0 0.0 0.00 0.00 0.00 75 1005.9
20260507014830 22 314 0.0 3.2 0.00 0.00 0.00 75 1006.3
20260507013340 22 151 0.0 6.4 0.00 0.00 0.00 74 1006.0
20260507011837 22 174 0.0 3.2 0.00 0.00 0.00 73 1005.8
20260507010333 22 184 1.6 4.8 0.00 0.00 0.00 72 1006.2
20260507004851 22 312 0.0 1.6 0.00 0.00 0.00 71 1006.3
20260507003322 23 316 0.0 1.6 0.00 0.00 0.00 70 1006.1
20260507001835 23 316 0.0 3.2 0.00 0.00 0.00 69 1005.8
20260507000332 23 89 0.0 1.6 0.00 0.00 0.00 68 1005.8
20260506234825 23 94 0.0 3.2 0.00 0.00 0.00 67 1005.5
20260506233401 23 297 0.0 4.8 0.00 0.00 0.00 67 1005.4
20260506231834 24 4 1.6 3.2 0.00 0.00 0.00 66 1005.3
20260506230353 24 239 0.0 3.2 0.00 0.00 0.00 65 1005.3
20260506224826 24 89 0.0 3.2 0.00 0.00 0.00 65 1005.3
20260506223338 24 352 1.6 8.0 0.00 0.00 0.00 65 1005.4
20260506221833 24 119 1.6 4.8 0.00 0.00 0.00 64 1005.3
20260506220326 24 191 1.6 4.8 0.00 0.00 0.00 65 1005.3
20260506214826 24 108 0.0 4.8 0.00 0.00 0.00 64 1005.2
20260506213339 25 314 1.6 4.8 0.00 0.00 0.00 64 1005.3
20260506211837 24 65 1.6 4.8 0.00 0.00 0.00 64 1004.9
20260506210350 25 250 3.2 6.4 0.00 0.00 0.00 64 1004.8
20260506204903 24 166 3.2 6.4 0.00 0.00 0.00 65 1005.0
20260506203358 24 91 4.8 8.0 0.00 0.00 0.00 65 1004.9
20260506201831 24 222 1.6 8.0 0.00 0.00 0.00 69 1005.3
20260506200347 23 160 1.6 8.0 0.00 0.00 0.00 72 1005.5
20260506194823 23 169 1.6 6.4 0.00 0.00 0.00 76 1006.0
20260506193355 22 113 1.6 3.2 0.00 0.00 0.00 77 1006.4
20260506191831 23 82 0.0 4.8 0.00 0.00 0.00 76 1006.8
20260506190327 24 214 1.6 8.0 0.00 0.00 0.00 68 1006.9
20260506184823 24 45 4.8 8.0 0.00 0.00 0.00 69 1006.9
20260506183400 24 210 1.6 9.7 0.00 0.00 0.00 69 1006.9
20260506181833 24 231 3.2 9.7 0.00 0.00 0.00 70 1007.0
20260506180330 23 210 3.2 11.3 0.00 0.00 0.00 71 1007.1
20260506174822 23 257 4.8 11.3 0.00 0.00 0.00 71 1007.4
20260506173341 23 188 1.6 9.7 0.00 0.00 0.00 72 1007.4
20260506171834 22 229 0.0 9.7 0.00 0.00 0.00 73 1007.9
20260506170331 22 224 3.2 14.5 0.00 0.00 0.00 74 1008.4
20260506164847 22 163 3.2 9.7 0.00 0.00 0.00 74 1008.4
20260506163322 22 285 3.2 9.7 0.00 0.00 0.00 75 1008.4
20260506161855 22 255 1.6 9.7 0.00 0.00 0.00 74 1008.4
20260506160327 21 204 3.2 6.4 0.00 0.00 0.00 74 1008.8
20260506154824 21 231 3.2 17.7 0.00 0.00 0.00 73 1009.0
20260506153337 21 113 3.2 8.0 0.00 0.00 0.00 74 1009.3
20260506151836 21 238 3.2 9.7 0.00 0.00 0.00 74 1009.5